Weather History for Campo, CA

Change the Weather History Date:

Monday, November 19, 2012

  Actual Average Record
Temperature  
Mean Temperature 52 °F 52 °F  
Max Temperature 70 °F 69 °F 84 °F (1995)
Min Temperature 33 °F 36 °F 19 °F (1994)
Degree Days  
Heating Degree Days 13 13  
Month to date heating degree days 198 200  
Since 1 July heating degree days 334 410  
Cooling Degree Days 0 0  
Month to date cooling degree days 0 0  
Year to date cooling degree days 942 839  
Growing Degree Days 2 (Base 50)    
Moisture  
Dew Point 38 °F    
Average Humidity 64    
Maximum Humidity 92    
Minimum Humidity 36    
Precipitation  
Precipitation 0.00 in 0.04 in 0.89 in (1967)
Month to date precipitation 0.43 0.59  
Year to date precipitation 8.24 12.92  
Since 1 July precipitation 2.19 2.77  
Snow  
Snow 0.00 in - - ()
Month to date snowfall 0.0  
Year to date snowfall 0.0  
Since 1 July snowfall 0.0  
Snow Depth 0.00 in    
Sea Level Pressure  
Sea Level Pressure 30.13 in    
Wind  
Wind Speed 5 mph (NNE)    
Max Wind Speed 16 mph    
Max Gust Speed 20 mph    
T = Trace of Precipitation, MM = Missing Value Source: NWS Daily Summary

Daily Weather History Graph

Daily Weather History Graph

Search for Another Location

Airport:

Trip Planner

Search our weather history database for the weather conditions in past years. The results will help you decide how hot, cold, wet, or windy it might be!

Date:

Astronomy

Nov. 19, 2012 Rise Set
Actual Time 6:19 AM PST 4:42 PM PST
Civil Twilight 5:53 AM PST 5:09 PM PST
Nautical Twilight 5:23 AM PST 5:38 PM PST
Astronomical Twilight 4:54 AM PST 6:08 PM PST
Moon 11:32 AM PST (11/19) 11:05 PM PST (11/19)
Length of Visible Light 11h 15m
Length of Day
10h 22m
Waxing Crescent, 42% of the Moon is Illuminated
Nov 19
Waxing Crescent
Nov 20
First Quarter
Nov 28
Full
Dec 6
Last Quarter
Dec 13
New

Hourly Weather History & Observations

Time (PST) Temp. Windchill Dew Point Humidity Pressure Visibility Wind Dir Wind Speed Gust Speed Precip Events Conditions
12:52 AM 39.9 °F 36.7 °F 37.0 °F 89% 30.12 in - North 4.6 mph - N/A   Unknown
1:52 AM 39.0 °F 36.8 °F 36.0 °F 89% 30.12 in - NNE 3.5 mph - N/A   Unknown
2:52 AM 37.9 °F - 35.1 °F 89% 30.11 in - Calm Calm - N/A   Unknown
3:52 AM 37.0 °F 34.5 °F 34.0 °F 89% 30.12 in - NE 3.5 mph - N/A   Unknown
4:52 AM 35.1 °F 30.1 °F 32.0 °F 89% 30.13 in - NE 5.8 mph - N/A   Unknown
5:52 AM 33.1 °F 27.7 °F 30.9 °F 92% 30.15 in - NE 5.8 mph - N/A   Unknown
6:52 AM 36.0 °F 31.1 °F 32.0 °F 86% 30.17 in - NE 5.8 mph - N/A   Unknown
7:52 AM 46.0 °F 43.9 °F 39.0 °F 76% 30.18 in - NE 4.6 mph - N/A   Unknown
8:52 AM 55.9 °F - 43.0 °F 62% 30.17 in - Calm Calm - N/A   Unknown
9:52 AM 62.1 °F - 37.9 °F 41% 30.16 in - Calm Calm - N/A   Unknown
10:52 AM 66.0 °F - 39.9 °F 38% 30.13 in - SW 4.6 mph - N/A   Unknown
11:52 AM 69.1 °F - 41.0 °F 36% 30.11 in - SSW 10.4 mph - N/A   Unknown
12:52 PM 70.0 °F - 43.0 °F 38% 30.09 in - SW 13.8 mph - N/A   Unknown
1:52 PM 70.0 °F - 41.0 °F 35% 30.08 in - WSW 9.2 mph - N/A   Unknown
2:52 PM 68.0 °F - 42.1 °F 39% 30.09 in - West 10.4 mph - N/A   Unknown
3:52 PM 66.9 °F - 43.0 °F 42% 30.09 in - West 4.6 mph - N/A   Unknown
4:52 PM 57.9 °F - 46.9 °F 67% 30.12 in - SSW 6.9 mph - N/A   Unknown
5:52 PM 52.0 °F - 44.1 °F 74% 30.15 in - Calm Calm - N/A   Unknown
6:52 PM 48.9 °F - 41.0 °F 74% 30.16 in - ENE 5.8 mph - N/A   Unknown
7:52 PM 46.9 °F - 39.9 °F 77% 30.16 in - ENE 3.5 mph - N/A   Unknown
8:52 PM 43.0 °F 40.3 °F 37.9 °F 82% 30.14 in - NNE 4.6 mph - N/A   Unknown
9:52 PM 44.1 °F 41.5 °F 37.0 °F 76% 30.13 in - NE 4.6 mph - N/A   Unknown
10:52 PM 43.0 °F 41.3 °F 36.0 °F 76% 30.12 in - NE 3.5 mph - N/A   Unknown
11:52 PM 41.0 °F 39.0 °F 34.0 °F 76% 30.11 in - NE 3.5 mph - N/A   Unknown